CW1394 Sandy Pt. Shores WA US current weather conditions

sailwx.info

Wind from 169 at 2 knots gusting 7

Air temperature 15.6° C
Dewpoint 12.5° C

Last reported at 2020-Jul-11 23:04 UTC.
Time now 2020-Jul-11 23:51 UTC

Location: N 48°48' W 122°42'.
View on Google Maps.

See reports from other nearby stations

  
Tides and Currents Weather Stations Pressure Air Temp Water Temp Dewpoint Dewpoint Depression Visibility Wind Speed Wind Dir Waves Ship Positions
date/time (UTC)wind fromknots sea level pressurealtimeterstation pressurevisibilityair tempwater tempwave heightnotes
2020-Jul-11 23:04 169 2 gusting 7 15.6
2020-Jul-11 22:59 164 4 gusting 6 15.6
2020-Jul-11 22:54 159 2 gusting 6 15.6
2020-Jul-11 22:49 168 3 gusting 6 15.6
2020-Jul-11 22:44 170 5 gusting 6 16.1
2020-Jul-11 22:39 168 5 gusting 8 16.1
2020-Jul-11 22:34 142 6 gusting 8 16.1
2020-Jul-11 22:29 155 5 gusting 8 16.1
2020-Jul-11 22:24 146 4 gusting 7 16.1
2020-Jul-11 22:19 151 4 gusting 6 16.1
2020-Jul-11 22:14 161 2 gusting 6 16.1
2020-Jul-11 22:09 167 4 gusting 10 16.1
2020-Jul-11 22:04 153 6 gusting 10 16.1
2020-Jul-11 21:59 150 5 gusting 10 15.6
2020-Jul-11 21:54 157 6 gusting 10 15.6
2020-Jul-11 21:49 169 5 gusting 13 16.1
2020-Jul-11 21:44 179 7 gusting 12 16.1
2020-Jul-11 21:39 177 6 gusting 11 16.1
2020-Jul-11 21:34 158 4 gusting 11 16.1
2020-Jul-11 21:29 171 6 gusting 10 16.7
2020-Jul-11 21:24 175 7 gusting 10 16.7
2020-Jul-11 21:19 175 6 gusting 11 16.7
2020-Jul-11 21:14 174 5 gusting 7 16.7
2020-Jul-11 21:09 178 6 gusting 7 17.2
2020-Jul-11 21:04 179 6 gusting 11 17.2
2020-Jul-11 20:59 162 5 gusting 10 17.2
2020-Jul-11 20:54 153 6 gusting 12 17.2
2020-Jul-11 20:49 146 6 gusting 11 17.2
2020-Jul-11 20:44 159 6 gusting 10 17.2
2020-Jul-11 20:39 156 5 gusting 7 16.7
2020-Jul-11 20:34 167 3 gusting 6 16.7
2020-Jul-11 20:29 164 5 gusting 10 16.7
2020-Jul-11 20:24 162 5 gusting 10 16.7
2020-Jul-11 20:19 169 6 gusting 10 16.7
2020-Jul-11 20:14 157 6 gusting 12 16.7
2020-Jul-11 20:09 166 7 gusting 12 16.7
2020-Jul-11 20:04 167 7 gusting 11 16.7
2020-Jul-11 19:59 176 6 gusting 11 17.2
2020-Jul-11 19:54 162 4 gusting 6 17.2
2020-Jul-11 19:49 167 5 gusting 10 17.2
2020-Jul-11 19:44 177 6 gusting 11 17.2
2020-Jul-11 19:39 183 6 gusting 10 17.2
2020-Jul-11 19:34 153 4 gusting 7 17.2
2020-Jul-11 19:29 154 2 gusting 6 17.2
2020-Jul-11 19:24 222 1 gusting 6 17.2
2020-Jul-11 19:19 223 1 gusting 6 17.2
2020-Jul-11 19:14 230 1 gusting 5 17.2
2020-Jul-11 19:09 230 6 gusting 7 17.2
2020-Jul-11 19:04 190 5 gusting 6 17.2
2020-Jul-11 18:59 144 4 gusting 6 17.2
2020-Jul-11 18:54 178 6 gusting 11 17.2
2020-Jul-11 18:49 178 4 gusting 7 17.2
2020-Jul-11 18:44 155 3 gusting 5 17.2
2020-Jul-11 18:39 165 4 gusting 6 17.2
2020-Jul-11 18:34 142 6 gusting 11 17.2
2020-Jul-11 18:29 182 6 gusting 7 16.7
2020-Jul-11 18:24 209 1 gusting 6 16.7
2020-Jul-11 18:19 212 6 gusting 11 16.7
2020-Jul-11 18:14 208 8 gusting 11 16.7
2020-Jul-11 18:09 177 6 gusting 10 16.7
2020-Jul-11 18:04 142 6 gusting 8 16.7
2020-Jul-11 17:59 142 6 gusting 8 16.1
2020-Jul-11 17:54 134 6 gusting 7 16.1
2020-Jul-11 17:49 142 4 gusting 6 15.6
2020-Jul-11 17:44 178 4 gusting 7 15.6
2020-Jul-11 17:39 184 4 gusting 6 15.6
2020-Jul-11 17:34 185 5 gusting 7 15.6
2020-Jul-11 17:29 164 2 gusting 6 15.6
2020-Jul-11 17:24 144 4 gusting 6 15.6
2020-Jul-11 17:19 155 2 gusting 6 15.6
2020-Jul-11 17:14 174 5 gusting 7 15.6
2020-Jul-11 17:09 171 6 gusting 10 15.6
2020-Jul-11 17:04 178 6 gusting 10 15.6
2020-Jul-11 16:59 139 4 gusting 7 15.6
2020-Jul-11 16:54 169 5 gusting 7 15.6
2020-Jul-11 16:49 146 4 gusting 8 15.6
2020-Jul-11 16:44 126 6 gusting 7 15.0
2020-Jul-11 16:39 152 4 gusting 7 15.0
2020-Jul-11 16:34 126 6 gusting 7 15.0
2020-Jul-11 16:29 140 5 gusting 10 14.4
2020-Jul-11 16:24 135 5 gusting 11 14.4
2020-Jul-11 16:19 126 6 gusting 8 14.4
2020-Jul-11 16:14 127 6 gusting 8 14.4
2020-Jul-11 16:09 131 6 gusting 10 14.4
2020-Jul-11 16:04 138 6 gusting 10 13.9
2020-Jul-11 15:59 152 5 gusting 8 13.9
2020-Jul-11 15:54 167 5 gusting 10 13.9
2020-Jul-11 15:49 141 7 gusting 12 13.9
2020-Jul-11 15:44 149 5 gusting 10 13.9
2020-Jul-11 15:39 150 7 gusting 11 13.9
2020-Jul-11 15:34 168 6 gusting 11 13.9
2020-Jul-11 15:29 172 7 gusting 11 13.9
2020-Jul-11 15:24 160 4 gusting 7 13.9
2020-Jul-11 15:19 143 7 gusting 10 13.3
2020-Jul-11 15:14 149 6 gusting 11 13.3
2020-Jul-11 15:09 146 7 gusting 10 13.3
2020-Jul-11 15:04 134 7 gusting 12 13.3
2020-Jul-11 14:59 123 6 gusting 11 13.3
2020-Jul-11 14:54 139 6 gusting 11 13.3
2020-Jul-11 14:49 143 6 gusting 11 12.8
2020-Jul-11 14:44 145 6 gusting 10 12.8
2020-Jul-11 14:39 158 6 gusting 10 12.8
2020-Jul-11 14:34 153 4 gusting 6 12.8
2020-Jul-11 14:29 173 3 gusting 6 12.8
2020-Jul-11 14:24 159 1 gusting 6 12.2
2020-Jul-11 14:19 163 4 gusting 6 12.2
2020-Jul-11 14:14 161 4 gusting 6 12.2
2020-Jul-11 14:09 155 3 gusting 6 12.2
2020-Jul-11 14:04 156 4 gusting 6 12.2
2020-Jul-11 13:59 153 4 gusting 6 12.2
2020-Jul-11 13:54 154 4 gusting 6 12.2
2020-Jul-11 13:49 142 4 gusting 7 12.2
2020-Jul-11 13:44 147 5 gusting 8 12.2
2020-Jul-11 13:39 133 6 gusting 8 12.2
2020-Jul-11 13:34 126 8 gusting 12 12.2
2020-Jul-11 13:29 136 8 gusting 13 12.2
2020-Jul-11 13:24 124 10 gusting 12 12.2
2020-Jul-11 13:19 126 10 gusting 13 12.2
2020-Jul-11 13:14 107 5 gusting 6 12.2
2020-Jul-11 13:09 111 3 gusting 8 12.2
2020-Jul-11 13:04 108 5 gusting 7 12.2
2020-Jul-11 12:59 143 4 gusting 7 11.7
2020-Jul-11 12:54 145 1 gusting 6 11.7
2020-Jul-11 12:49 145 4 gusting 6 11.7
2020-Jul-11 12:44 145 1 gusting 6 11.7
2020-Jul-11 12:39 145 1 gusting 4 11.7
2020-Jul-11 12:34 145 2 gusting 4 11.7
2020-Jul-11 12:29 145 2 gusting 4 11.7
2020-Jul-11 12:24 145 2 gusting 5 11.7
2020-Jul-11 12:19 145 2 gusting 5 11.7
2020-Jul-11 12:14 145 2 gusting 6 11.7
2020-Jul-11 12:09 145 2 gusting 5 11.7
2020-Jul-11 12:04 145 2 gusting 4 11.7
2020-Jul-11 11:59 145 1 gusting 4 11.7
2020-Jul-11 11:54 145 1 gusting 2 12.2
2020-Jul-11 11:49 145 12.2
2020-Jul-11 11:44 145 0 gusting 2 12.2
2020-Jul-11 11:39 145 12.2
2020-Jul-11 11:34 145 1 gusting 5 12.2
2020-Jul-11 11:29 145 1 gusting 4 12.2
2020-Jul-11 11:24 145 2 gusting 5 12.2
2020-Jul-11 11:19 145 2 gusting 6 12.2
2020-Jul-11 11:14 145 4 gusting 6 12.2
2020-Jul-11 11:09 147 5 gusting 6 12.2
2020-Jul-11 11:04 127 4 gusting 6 12.2
2020-Jul-11 10:59 126 5 gusting 6 12.2
2020-Jul-11 10:54 128 5 gusting 6 12.2
2020-Jul-11 10:49 147 4 gusting 6 12.2
2020-Jul-11 10:44 148 4 gusting 6 12.2
2020-Jul-11 10:39 145 3 gusting 6 12.8
2020-Jul-11 10:34 144 4 gusting 6 12.8
2020-Jul-11 10:29 142 4 gusting 6 12.8
2020-Jul-11 10:24 137 4 gusting 7 12.8
2020-Jul-11 10:19 134 4 gusting 6 12.8
2020-Jul-11 10:14 124 6 gusting 8 12.8
2020-Jul-11 10:09 088 7 gusting 8 12.8
2020-Jul-11 10:04 090 6 gusting 8 12.8
2020-Jul-11 09:59 095 6 gusting 10 12.8
2020-Jul-11 09:54 087 6 gusting 11 12.8
2020-Jul-11 09:49 091 7 gusting 10 13.3
2020-Jul-11 09:44 083 8 gusting 11 13.3
2020-Jul-11 09:39 081 8 gusting 11 13.3
2020-Jul-11 09:34 075 7 gusting 11 13.3
2020-Jul-11 09:29 074 8 gusting 11 13.3
2020-Jul-11 09:24 071 7 gusting 8 13.3
2020-Jul-11 09:19 083 7 gusting 10 13.3
2020-Jul-11 09:14 080 7 gusting 8 13.3
2020-Jul-11 09:09 087 6 gusting 10 13.3
2020-Jul-11 09:04 093 6 gusting 8 13.3
2020-Jul-11 08:59 089 6 gusting 10 13.3
2020-Jul-11 08:54 092 6 gusting 8 13.3
2020-Jul-11 08:49 096 6 gusting 11 13.3
2020-Jul-11 08:44 091 5 gusting 7 13.3
2020-Jul-11 08:39 114 5 gusting 8 13.3
2020-Jul-11 08:34 095 5 gusting 7 13.3
2020-Jul-11 08:29 104 6 gusting 8 13.3
2020-Jul-11 08:24 093 5 gusting 8 13.3
2020-Jul-11 08:19 084 6 gusting 10 13.3
2020-Jul-11 08:14 085 6 gusting 8 13.9
2020-Jul-11 08:09 092 5 gusting 7 13.9
2020-Jul-11 08:04 095 5 gusting 7 13.9
2020-Jul-11 07:59 096 6 gusting 7 13.9
2020-Jul-11 07:54 093 6 gusting 8 13.9
2020-Jul-11 07:49 093 6 gusting 7 13.9
2020-Jul-11 07:44 097 6 gusting 7 13.9
2020-Jul-11 07:39 112 5 gusting 7 13.9
2020-Jul-11 07:34 110 3 gusting 6 13.9
2020-Jul-11 07:29 111 0 gusting 5 13.9
2020-Jul-11 07:24 111 3 gusting 6 13.9
2020-Jul-11 07:19 111 2 gusting 6 13.9
2020-Jul-11 07:14 111 2 gusting 6 13.9
2020-Jul-11 07:09 112 2 gusting 6 13.9
2020-Jul-11 07:04 113 5 gusting 6 13.9
2020-Jul-11 06:59 147 2 gusting 5 13.9
2020-Jul-11 06:54 154 2 gusting 4 13.9
2020-Jul-11 06:49 154 1 gusting 2 13.9
2020-Jul-11 06:44 154 0 gusting 1 13.9
2020-Jul-11 06:39 154 0 gusting 4 13.9
2020-Jul-11 06:34 154 2 gusting 4 13.9
2020-Jul-11 06:29 154 2 gusting 4 13.9
2020-Jul-11 06:24 154 2 gusting 6 13.9
2020-Jul-11 06:19 153 4 gusting 6 13.9
2020-Jul-11 06:14 148 4 gusting 6 13.9
2020-Jul-11 06:09 139 5 gusting 7 13.9
2020-Jul-11 06:04 130 6 gusting 7 13.9
2020-Jul-11 05:59 140 2 gusting 6 13.9
2020-Jul-11 05:54 131 5 gusting 8 13.9
2020-Jul-11 05:49 128 6 gusting 7 13.9
2020-Jul-11 05:44 131 6 gusting 8 13.9
2020-Jul-11 05:39 135 4 gusting 6 13.9
2020-Jul-11 05:34 136 3 gusting 6 13.9
2020-Jul-11 05:29 138 4 gusting 6 13.9
2020-Jul-11 05:24 153 4 gusting 6 13.9
2020-Jul-11 05:19 153 2 gusting 5 13.9
2020-Jul-11 05:14 153 2 gusting 6 13.9
2020-Jul-11 05:09 153 4 gusting 6 13.9
2020-Jul-11 05:04 194 1 gusting 4 13.9
2020-Jul-11 04:59 194 2 gusting 4 14.4
2020-Jul-11 04:54 194 2 gusting 5 14.4
2020-Jul-11 04:49 194 5 gusting 6 14.4
2020-Jul-11 02:19 317 3 gusting 5 21.1
2020-Jul-11 02:14 328 1 gusting 4 21.7
2020-Jul-11 02:09 328 2 gusting 6 21.7
2020-Jul-11 02:04 328 3 gusting 5 21.7
2020-Jul-11 01:59 328 4 gusting 6 21.7
2020-Jul-11 01:54 330 2 gusting 6 22.2
2020-Jul-11 01:49 330 5 gusting 6 22.2
2020-Jul-11 01:44 332 4 gusting 6 22.2
2020-Jul-11 01:39 332 2 gusting 6 22.2
2020-Jul-11 01:34 329 2 gusting 6 22.2
2020-Jul-11 01:29 334 5 gusting 6 22.2
2020-Jul-11 01:24 330 4 gusting 6 22.2
2020-Jul-11 01:19 333 5 gusting 6 22.2
2020-Jul-11 01:14 331 6 gusting 7 22.2
2020-Jul-11 01:09 340 4 gusting 7 22.8
2020-Jul-11 01:04 332 5 gusting 7 22.8
2020-Jul-11 00:59 317 6 gusting 7 22.8
2020-Jul-11 00:54 326 4 gusting 6 22.8
2020-Jul-11 00:49 336 4 gusting 7 22.8
2020-Jul-11 00:44 318 7 gusting 10 22.8
2020-Jul-11 00:39 321 8 gusting 12 23.3
2020-Jul-11 00:34 323 8 gusting 11 23.3
2020-Jul-11 00:29 327 7 gusting 11 23.9
2020-Jul-11 00:24 324 6 gusting 10 23.9
2020-Jul-11 00:19 315 6 gusting 8 23.9
2020-Jul-11 00:14 310 6 gusting 6 23.9
2020-Jul-11 00:09 319 5 gusting 6 23.9
2020-Jul-11 00:04 316 4 gusting 6 24.4
2020-Jul-10 23:59 320 4 gusting 6 24.4
2020-Jul-10 23:54 316 5 gusting 6 24.4
2020-Jul-10 23:49 330 5 gusting 6 23.9
2020-Jul-10 23:44 323 5 gusting 7 23.9
2020-Jul-10 23:39 329 4 gusting 6 23.9
2020-Jul-10 23:34 331 4 gusting 6 23.9
2020-Jul-10 23:29 311 5 gusting 7 23.9
2020-Jul-10 23:24 331 6 gusting 7 23.9
2020-Jul-10 23:19 328 6 gusting 7 24.4
2020-Jul-10 23:14 313 5 gusting 7 24.4
2020-Jul-10 23:09 323 6 gusting 7 24.4
2020-Jul-10 23:04 317 5 gusting 6 24.4
2020-Jul-10 22:59 317 6 gusting 7 23.9
2020-Jul-10 22:54 317 5 gusting 7 23.9
2020-Jul-10 22:49 325 6 gusting 7 23.9
2020-Jul-10 22:44 327 4 gusting 7 23.9
2020-Jul-10 22:39 320 6 gusting 8 23.9
2020-Jul-10 22:34 320 6 gusting 10 23.9
2020-Jul-10 22:29 328 6 gusting 10 23.3
2020-Jul-10 22:24 330 6 gusting 8 23.3
2020-Jul-10 22:19 307 6 gusting 7 23.3
2020-Jul-10 22:14 314 6 gusting 6 22.8
2020-Jul-10 22:09 310 4 gusting 6 22.8
2020-Jul-10 22:04 305 2 gusting 5 22.2
2020-Jul-10 21:59 305 4 gusting 6 22.2
2020-Jul-10 21:54 300 4 gusting 5 22.2
2020-Jul-10 21:49 300 4 gusting 6 22.8
2020-Jul-10 21:44 293 4 gusting 6 22.8
2020-Jul-10 21:39 305 3 gusting 5 22.8
2020-Jul-10 21:34 300 2 gusting 5 23.3
2020-Jul-10 21:29 309 2 gusting 6 23.3
2020-Jul-10 21:24 326 4 gusting 6 23.3
2020-Jul-10 21:19 336 2 gusting 6 22.8
2020-Jul-10 21:14 326 6 gusting 7 22.8
2020-Jul-10 21:09 310 5 gusting 6 22.2
2020-Jul-10 21:04 321 4 gusting 6 22.2
2020-Jul-10 20:59 325 3 gusting 6 22.2
2020-Jul-10 20:54 336 4 gusting 6 21.7
2020-Jul-10 20:49 333 4 gusting 6 21.1
2020-Jul-10 20:44 319 5 gusting 6 21.1
2020-Jul-10 20:39 319 5 gusting 6 20.6
2020-Jul-10 20:34 328 5 gusting 6 20.0
2020-Jul-10 20:29 321 5 gusting 6 19.4
2020-Jul-10 20:24 305 3 gusting 6 19.4
2020-Jul-10 20:19 304 5 gusting 8 18.9
2020-Jul-10 20:14 242 5 gusting 7 18.3
2020-Jul-10 20:09 234 5 gusting 6 18.3
2020-Jul-10 20:04 234 5 gusting 6 18.3
2020-Jul-10 19:59 228 5 gusting 6 18.3
2020-Jul-10 19:54 228 6 gusting 7 18.3
2020-Jul-10 19:49 228 6 gusting 7 18.3
2020-Jul-10 19:44 220 7 gusting 8 18.3
2020-Jul-10 19:39 223 7 gusting 8 18.3
2020-Jul-10 19:34 231 6 gusting 7 18.3
2020-Jul-10 19:29 207 7 gusting 11 18.3
2020-Jul-10 19:24 203 7 gusting 11 18.3
2020-Jul-10 19:19 206 7 gusting 11 18.3
2020-Jul-10 19:14 207 7 gusting 11 17.8
2020-Jul-10 19:09 204 7 gusting 10 17.8
2020-Jul-10 19:04 214 5 gusting 8 17.8
2020-Jul-10 18:59 219 7 gusting 11 17.8
2020-Jul-10 18:54 216 7 gusting 8 17.8
2020-Jul-10 18:49 231 9 gusting 12 17.8
2020-Jul-10 18:44 223 6 gusting 8 17.8
2020-Jul-10 18:39 226 7 gusting 12 17.8
2020-Jul-10 18:34 219 7 gusting 11 17.8
2020-Jul-10 18:29 209 8 gusting 13 17.2
2020-Jul-10 18:24 222 8 gusting 13 17.2
2020-Jul-10 18:19 207 10 gusting 13 17.2
2020-Jul-10 18:14 206 11 gusting 14 17.2
2020-Jul-10 18:09 206 10 gusting 13 17.2
2020-Jul-10 18:04 205 8 gusting 12 17.2
2020-Jul-10 17:59 215 8 gusting 12 17.2
2020-Jul-10 17:54 205 6 gusting 11 17.2
2020-Jul-10 17:49 175 6 gusting 7 17.2
2020-Jul-10 17:44 172 3 gusting 6 16.7
2020-Jul-10 17:39 173 4 gusting 7 16.7
2020-Jul-10 17:34 185 6 gusting 10 16.7
2020-Jul-10 17:29 178 5 gusting 10 16.1
2020-Jul-10 17:24 167 5 gusting 6 16.1
2020-Jul-10 17:19 179 4 gusting 6 15.6
2020-Jul-10 17:14 137 6 gusting 7 15.6
2020-Jul-10 17:09 158 2 gusting 6 15.6
2020-Jul-10 17:04 155 3 gusting 6 15.6
2020-Jul-10 16:59 155 4 gusting 6 15.6
2020-Jul-10 16:54 143 4 gusting 6 15.6
2020-Jul-10 16:49 145 2 gusting 6 15.0
2020-Jul-10 16:44 145 4 gusting 6 15.0
2020-Jul-10 16:39 143 4 gusting 6 15.0
2020-Jul-10 16:34 147 2 gusting 6 15.0
2020-Jul-10 16:29 138 4 gusting 7 15.0
2020-Jul-10 16:24 137 4 gusting 6 14.4
2020-Jul-10 16:19 136 4 gusting 6 14.4
2020-Jul-10 16:14 136 2 gusting 6 14.4
2020-Jul-10 16:09 137 3 gusting 6 14.4
2020-Jul-10 16:04 137 4 gusting 6 14.4
2020-Jul-10 15:59 140 4 gusting 6 14.4
2020-Jul-10 15:54 134 5 gusting 7 14.4
2020-Jul-10 15:49 134 5 gusting 6 14.4
2020-Jul-10 15:44 135 4 gusting 7 14.4
2020-Jul-10 15:39 134 6 gusting 8 14.4
2020-Jul-10 15:34 129 4 gusting 6 14.4
2020-Jul-10 15:29 130 4 gusting 6 13.9
2020-Jul-10 15:24 134 2 gusting 6 13.9
2020-Jul-10 15:19 134 4 gusting 6 13.9
2020-Jul-10 15:14 138 1 gusting 4 13.9
2020-Jul-10 15:09 138 4 gusting 6 13.9
2020-Jul-10 15:04 138 4 gusting 6 13.9
2020-Jul-10 14:59 142 4 gusting 11 13.9
2020-Jul-10 14:54 128 6 gusting 10 13.3
2020-Jul-10 14:49 137 6 gusting 10 13.3
2020-Jul-10 14:44 129 7 gusting 11 13.3
2020-Jul-10 14:39 132 6 gusting 11 13.3
2020-Jul-10 14:34 118 8 gusting 12 13.3
2020-Jul-10 14:29 131 6 gusting 10 13.3
2020-Jul-10 14:24 127 9 gusting 13 12.8
2020-Jul-10 14:19 128 7 gusting 11 12.8
2020-Jul-10 14:14 127 6 gusting 8 12.8
2020-Jul-10 14:09 130 5 gusting 7 12.8
2020-Jul-10 14:04 132 6 gusting 8 12.8
2020-Jul-10 13:59 127 6 gusting 10 12.8
2020-Jul-10 13:54 133 5 gusting 8 12.8
2020-Jul-10 13:49 127 7 gusting 11 12.8
2020-Jul-10 13:44 131 6 gusting 8 12.8
2020-Jul-10 13:39 130 7 gusting 10 12.2
2020-Jul-10 13:34 130 6 gusting 8 12.2
2020-Jul-10 13:29 147 5 gusting 8 12.2
2020-Jul-10 13:24 133 7 gusting 11 12.2
2020-Jul-10 13:19 144 5 gusting 10 12.2
2020-Jul-10 13:14 139 6 gusting 10 12.2
2020-Jul-10 13:09 156 5 gusting 11 12.2
2020-Jul-10 13:04 164 6 gusting 11 12.2
2020-Jul-10 12:59 165 5 gusting 11 12.2
2020-Jul-10 12:54 172 4 gusting 7 12.2
2020-Jul-10 12:49 140 2 gusting 6 11.7
2020-Jul-10 12:44 144 2 gusting 6 11.7
2020-Jul-10 12:39 146 5 gusting 6 11.7
2020-Jul-10 12:34 144 4 gusting 6 11.7
2020-Jul-10 12:29 139 5 gusting 8 11.7
2020-Jul-10 12:24 147 4 gusting 7 11.7
2020-Jul-10 12:19 146 4 gusting 6 11.7
2020-Jul-10 12:14 130 4 gusting 6 11.7
2020-Jul-10 12:09 145 2 gusting 5 11.7
2020-Jul-10 12:04 145 2 gusting 6 11.7
2020-Jul-10 11:59 145 4 gusting 6 11.7
2020-Jul-10 11:54 130 2 gusting 4 11.7
2020-Jul-10 11:49 130 2 gusting 4 11.7
2020-Jul-10 11:44 130 2 gusting 5 11.7
2020-Jul-10 11:39 130 2 gusting 4 11.7
2020-Jul-10 11:34 130 5 gusting 7 11.7
2020-Jul-10 11:29 139 4 gusting 6 11.7
2020-Jul-10 11:24 140 4 gusting 6 11.7
2020-Jul-10 11:19 130 4 gusting 7 11.7
2020-Jul-10 11:14 155 4 gusting 7 11.7
2020-Jul-10 11:09 150 4 gusting 7 11.7
2020-Jul-10 11:04 153 4 gusting 6 11.7
2020-Jul-10 10:59 155 5 gusting 7 11.7
2020-Jul-10 10:54 153 5 gusting 6 11.7
2020-Jul-10 10:49 149 6 gusting 7 11.7
2020-Jul-10 10:44 153 4 gusting 6 11.7
2020-Jul-10 10:39 153 5 gusting 7 11.7
2020-Jul-10 10:34 156 3 gusting 6 11.7
2020-Jul-10 10:29 156 4 gusting 6 11.7
2020-Jul-10 10:24 155 3 gusting 6 11.7
2020-Jul-10 10:19 155 4 gusting 6 11.7
2020-Jul-10 10:14 155 2 gusting 6 11.7
2020-Jul-10 10:09 155 3 gusting 6 11.7
2020-Jul-10 10:04 155 2 gusting 5 11.7
2020-Jul-10 09:59 155 4 gusting 6 11.7
2020-Jul-10 09:54 155 4 gusting 6 11.7
2020-Jul-10 09:49 155 2 gusting 6 12.2
2020-Jul-10 09:44 156 3 gusting 6 12.2
2020-Jul-10 09:39 159 3 gusting 5 12.2
2020-Jul-10 09:34 159 2 gusting 5 12.2
2020-Jul-10 09:29 159 2 gusting 5 12.2
2020-Jul-10 09:24 159 4 gusting 6 12.2
2020-Jul-10 09:19 159 4 gusting 6 12.2
2020-Jul-10 09:14 162 2 gusting 5 12.2
2020-Jul-10 09:09 162 2 gusting 6 12.2
2020-Jul-10 09:04 160 3 gusting 6 12.8
2020-Jul-10 08:59 159 5 gusting 7 12.8
2020-Jul-10 08:54 130 4 gusting 7 12.8
2020-Jul-10 08:49 128 6 gusting 8 12.8
2020-Jul-10 08:44 131 6 gusting 8 12.8
2020-Jul-10 08:39 153 5 gusting 7 12.8
2020-Jul-10 08:34 156 5 gusting 6 12.8
2020-Jul-10 08:29 161 2 gusting 5 12.8
2020-Jul-10 08:24 161 2 gusting 5 12.8
2020-Jul-10 08:19 161 3 gusting 5 12.8
2020-Jul-10 08:14 161 2 gusting 5 12.8
2020-Jul-10 08:09 161 4 gusting 6 12.8
2020-Jul-10 08:04 161 4 gusting 6 12.8
2020-Jul-10 07:59 161 3 gusting 5 12.8
2020-Jul-10 07:54 161 1 gusting 4 12.8
2020-Jul-10 07:49 161 1 gusting 5 12.8
2020-Jul-10 07:44 161 2 gusting 5 12.8
2020-Jul-10 07:39 161 4 gusting 6 12.8
2020-Jul-10 07:34 161 2 gusting 5 12.8
2020-Jul-10 07:29 163 1 gusting 5 12.8
2020-Jul-10 07:24 163 4 gusting 6 12.8
2020-Jul-10 07:19 157 4 gusting 6 12.8
2020-Jul-10 07:14 142 4 gusting 6 12.8
2020-Jul-10 07:09 144 4 gusting 8 12.8
2020-Jul-10 07:04 149 4 gusting 6 12.8
2020-Jul-10 06:59 155 5 gusting 7 12.8
2020-Jul-10 06:54 150 5 gusting 7 12.8
2020-Jul-10 06:49 153 5 gusting 8 12.8
2020-Jul-10 06:44 149 5 gusting 7 12.8
2020-Jul-10 06:39 148 5 gusting 7 12.8
2020-Jul-10 06:34 142 5 gusting 8 12.8
2020-Jul-10 06:29 160 6 gusting 10 13.3
2020-Jul-10 06:24 170 5 gusting 10 13.3
2020-Jul-10 06:19 168 6 gusting 10 13.3
2020-Jul-10 06:14 172 5 gusting 7 13.3
2020-Jul-10 06:09 159 3 gusting 6 13.3
2020-Jul-10 06:04 143 2 gusting 6 13.3
2020-Jul-10 05:59 147 2 gusting 6 13.3
2020-Jul-10 05:54 149 3 gusting 6 13.3
2020-Jul-10 05:49 138 4 gusting 6 13.9
2020-Jul-10 05:44 129 4 gusting 6 13.9
2020-Jul-10 05:39 126 5 gusting 7 13.9
2020-Jul-10 05:34 111 5 gusting 6 13.9
2020-Jul-10 05:29 107 4 gusting 6 13.9
2020-Jul-10 05:24 126 2 gusting 4 13.9
2020-Jul-10 05:19 126 1 gusting 4 13.9
2020-Jul-10 05:14 126 3 gusting 6 13.9
2020-Jul-10 05:09 125 5 gusting 6 13.9
2020-Jul-10 05:04 122 4 gusting 6 13.9
2020-Jul-10 04:59 136 3 gusting 6 14.4
2020-Jul-10 04:54 137 2 gusting 5 14.4
2020-Jul-10 04:49 137 3 gusting 6 14.4
2020-Jul-10 04:44 138 5 gusting 6 14.4
2020-Jul-10 04:39 141 4 gusting 6 14.4
2020-Jul-10 04:34 142 4 gusting 6 14.4
2020-Jul-10 04:29 141 4 gusting 5 14.4
2020-Jul-10 04:24 141 2 gusting 7 14.4
2020-Jul-10 04:19 153 6 gusting 8 14.4
2020-Jul-10 04:14 160 4 gusting 6 15.0
2020-Jul-10 04:09 146 4 gusting 7 15.0
2020-Jul-10 04:04 147 5 gusting 6 15.0
2020-Jul-10 03:59 142 4 gusting 6 15.0
2020-Jul-10 03:54 140 3 gusting 6 15.6
2020-Jul-10 03:49 149 5 gusting 7 15.6
2020-Jul-10 03:44 150 4 gusting 6 15.6
2020-Jul-10 03:39 145 3 gusting 7 16.1
2020-Jul-10 03:34 140 4 gusting 6 16.1
2020-Jul-10 03:29 150 4 gusting 6 16.1
2020-Jul-10 03:24 139 4 gusting 7 16.1
2020-Jul-10 03:19 130 6 gusting 8 16.1
2020-Jul-10 03:14 140 5 gusting 7 16.7
2020-Jul-10 03:09 143 5 gusting 7 16.7
2020-Jul-10 03:04 146 4 gusting 8 16.7
2020-Jul-10 02:59 141 6 gusting 10 16.7
2020-Jul-10 02:54 145 6 gusting 11 16.7
2020-Jul-10 02:49 147 6 gusting 10 17.2
2020-Jul-10 02:44 151 5 gusting 10 17.2
2020-Jul-10 02:39 157 5 gusting 12 17.2
2020-Jul-10 02:34 156 5 gusting 8 17.8
2020-Jul-10 02:29 160 6 gusting 11 17.8
2020-Jul-10 02:24 166 8 gusting 13 17.8
2020-Jul-10 02:19 161 6 gusting 13 17.8
2020-Jul-10 02:14 158 6 gusting 12 17.8
2020-Jul-10 02:09 163 6 gusting 13 18.3
2020-Jul-10 02:04 167 7 gusting 13 18.3
2020-Jul-10 01:59 149 7 gusting 13 18.3
2020-Jul-10 01:54 156 7 gusting 13 18.3
2020-Jul-10 01:49 164 6 gusting 11 18.3
2020-Jul-10 01:44 169 7 gusting 13 18.3
2020-Jul-10 01:39 156 7 gusting 12 18.3
2020-Jul-10 01:34 162 7 gusting 13 18.3
2020-Jul-10 01:29 173 8 gusting 13 18.3
2020-Jul-10 01:24 165 9 gusting 13 18.9
2020-Jul-10 01:19 177 10 gusting 13 18.9
2020-Jul-10 01:14 170 10 gusting 14 18.9
2020-Jul-10 01:09 180 9 gusting 12 18.9
2020-Jul-10 01:04 176 10 gusting 13 19.4
2020-Jul-10 00:59 174 10 gusting 13 19.4
2020-Jul-10 00:54 173 10 gusting 13 19.4
2020-Jul-10 00:49 171 5 gusting 13 20.0
2020-Jul-10 00:44 172 5 gusting 12 20.0
2020-Jul-10 00:39 148 6 gusting 12 20.0
2020-Jul-10 00:34 175 7 gusting 12 20.0
2020-Jul-10 00:29 169 6 gusting 13 20.0
2020-Jul-10 00:24 159 7 gusting 12 20.0
2020-Jul-10 00:19 149 8 gusting 12 20.0
2020-Jul-10 00:14 145 6 gusting 8 20.0
2020-Jul-10 00:09 146 7 gusting 12 20.0
2020-Jul-10 00:04 144 7 gusting 12 20.0
2020-Jul-09 23:59 136 6 gusting 11 20.0
2020-Jul-09 23:54 135 8 gusting 12 20.0
2020-Jul-09 23:49 167 7 gusting 13 20.0
2020-Jul-09 23:44 145 8 gusting 12 20.0
2020-Jul-09 23:39 160 7 gusting 13 20.0
2020-Jul-09 23:34 138 7 gusting 13 20.0
2020-Jul-09 23:29 145 8 gusting 13 20.0
2020-Jul-09 23:24 141 7 gusting 11 20.0
2020-Jul-09 23:19 132 7 gusting 11 20.0
2020-Jul-09 23:14 120 6 gusting 8 20.0
2020-Jul-09 23:09 132 5 gusting 7 19.4
2020-Jul-09 23:04 150 5 gusting 10 19.4